Вернуться в каталог

FENGYUN 2D AKM

АктивенMEO
NORAD 29642·ROCKET BODY·🇨🇳 China

Запущен Dec 8, 2006 с Xichang Satellite Launch Center

Loading…

Ближайшие Пролёты (ближайшие 24 часа)

TLE

СвежийSource: Space-Track

Эпоха: Sep 14, 2026, 12:19 UTC

1 29642U 06053C   26257.51334198  .00000031  00000-0  00000-0 0  9997
2 29642  11.9680  37.0380 0106441  50.0351 138.8640  0.99353430 47143

Отслеживайте FENGYUN 2D AKM в реальном времени с AllMySat

Download on the App Store